Home > Weather > Rzeszów > Past weeks

Flag for Poland Weather for the Past 2 Weeks in Rzeszów, Poland

Now
54 °F

Partly sunny.


Feels Like: 54 °F
Forecast: 40 / 65 °F
Wind: 2 mph from North

Location: Rzeszow-Jasionka

Current Time: Apr 30, 2016 at 5:13:51 PM

Latest Report: Apr 30, 2016 at 4:30 PM


Visibility: N/A

Pressure: 30.12 "Hg

Humidity: 72%

Dew Point: 45 °F

Location of RzeszówLocation

Historic Weather in Rzeszów — Graph

°F

Rzeszów Temperature Yesterday

Maximum temperature yesterday: 57 °F (at 12:30 PM)
Minimum temperature yesterday: 41 °F (at 5:00 AM)
Average temperature yesterday: 49 °F

High & Low Weather Summary for the Past Weeks

 TemperatureHumidityPressure
High75 °F (Apr 17, 3:00 PM)100% (Apr 16, 11:00 PM)30.30 "Hg (Apr 16, 11:00 PM)
Low30 °F (Apr 23, 4:30 AM)27% (Apr 22, 5:00 PM)29.56 "Hg (Apr 24, 2:00 AM)
Average49 °F72%29.91 "Hg
* Reported Apr 15 3:00 PM — Apr 30 3:30 PM, Rzeszów, Weather by CustomWeather, © 2016

Note: Actual official high and low records may vary slightly from our data, if they occured in-between our weather recording intervals... More about our weather records

Advertising

Rzeszów Weather History for the Previous 24 Hours

Scroll right to see more
 ConditionsComfort  
Time TempWeatherWind HumidityBarometerVisibility
3:30 PM
Sat, Apr 30
50 °FBroken clouds.7 mph82%30.15 "HgN/A
3:00 PM50 °FBroken clouds.7 mph82%30.15 "HgN/A
2:30 PM50 °FBroken clouds.6 mph82%30.15 "HgN/A
2:00 PM50 °FBroken clouds.5 mph82%30.15 "HgN/A
1:30 PM50 °FBroken clouds.7 mph82%30.15 "HgN/A
1:00 PM48 °FBroken clouds.6 mph87%30.12 "HgN/A
12:30 PM48 °FBroken clouds.5 mph87%30.12 "HgN/A
12:00 PM48 °FMostly cloudy.6 mph94%30.12 "HgN/A
11:00 AM46 °FMore clouds than sun.6 mph93%30.12 "HgN/A
10:30 AM46 °FMore clouds than sun.5 mph93%30.12 "HgN/A
10:00 AM46 °FMostly cloudy.5 mph93%30.12 "HgN/A
9:00 AM46 °FMostly cloudy.5 mph93%30.12 "HgN/A
8:30 AM46 °FMore clouds than sun.6 mph93%30.12 "HgN/A
8:00 AM46 °FDrizzle. More clouds than sun.6 mph93%30.12 "Hg4 mi
7:30 AM46 °FLow clouds.7 mph93%30.12 "Hg5 mi
7:00 AM45 °FDrizzle. Fog.7 mph100%30.12 "Hg3 mi
6:30 AM45 °FMore clouds than sun.7 mph100%30.09 "Hg4 mi
6:00 AM45 °FMostly cloudy.7 mph100%30.09 "Hg5 mi
5:30 AM45 °FMostly cloudy.7 mph100%30.09 "Hg5 mi
5:00 AM45 °FLight rain. Mostly cloudy.6 mph100%30.09 "Hg4 mi
4:30 AM45 °FLight rain. Mostly cloudy.6 mph100%30.09 "Hg5 mi
4:00 AM46 °FLight rain. Mostly cloudy.6 mph93%30.12 "Hg5 mi
3:00 AM46 °FLight rain. Low clouds.5 mph93%30.12 "Hg5 mi
2:00 AM46 °FLight rain. Mostly cloudy.5 mph93%30.12 "Hg4 mi
1:30 AM46 °FLight rain. Mostly cloudy.6 mph93%30.12 "Hg4 mi
1:00 AM46 °FLight rain. Low clouds.6 mph93%30.12 "Hg4 mi
12:30 AM46 °FLight rain. Overcast.6 mph93%30.15 "Hg4 mi
12:00 AM46 °FLight rain. Overcast.5 mph93%30.15 "Hg5 mi
11:30 PM
Fri, Apr 29
46 °FLight rain. Overcast.5 mph93%30.15 "Hg5 mi
11:00 PM46 °FLight rain. Overcast.3 mph93%30.15 "Hg4 mi
10:30 PM46 °FLight rain. Overcast.5 mph93%30.15 "Hg4 mi
10:00 PM46 °FLight rain. Overcast.3 mph100%30.15 "Hg4 mi
9:30 PM48 °FLight rain. Fog.3 mph94%30.15 "Hg3 mi
9:00 PM48 °FLight rain. Overcast.2 mph94%30.15 "Hg4 mi
8:30 PM48 °FLight rain. Partly sunny.2 mph94%30.15 "Hg5 mi
8:00 PM48 °FLight rain. Partly sunny.2 mph94%30.15 "Hg5 mi
7:30 PM50 °FLight rain. Overcast.2 mph82%30.15 "Hg5 mi
7:00 PM50 °FLight rain. Partly sunny.3 mph82%30.15 "HgN/A
6:30 PM50 °FLight rain. Partly sunny.5 mph88%30.15 "HgN/A
6:00 PM50 °FLight rain. Partly sunny.5 mph82%30.15 "HgN/A
5:30 PM52 °FLight rain. Partly sunny.6 mph77%30.15 "HgN/A
5:00 PM52 °FLight rain. Partly sunny.7 mph72%30.15 "HgN/A
Weather by CustomWeather, © 2016

See weather overviewHow to use our weather pages